W7KKE-3 Weather Reports


Display with metric or nautical units.
time (UTC)temp
F
wind
direction
speed
MPH
gust
MPH
rain 1hr
in
rain 24hr
in
rain mn
in
humidity
%
barometer
mb
20150131095907 44 98 3.0 6.0 0.00 0.00 0.00 94 1023.8
20150131095408 44 89 2.0 5.0 0.00 0.00 0.00 94 1023.9
20150131094908 44 102 2.0 5.0 0.00 0.00 0.00 94 1024.0
20150131094408 44 57 3.0 6.0 0.00 0.00 0.00 94 1024.0
20150131093908 45 82 2.0 6.0 0.00 0.00 0.00 94 1023.9
20150131093408 45 79 2.0 6.0 0.00 0.00 0.00 94 1023.9
20150131092908 45 67 5.0 5.0 0.00 0.00 0.00 94 1023.9
20150131092408 45 68 4.0 4.0 0.00 0.00 0.00 94 1024.0
20150131091908 45 54 1.0 5.0 0.00 0.00 0.00 94 1023.7
20150131091408 45 72 0.0 5.0 0.00 0.00 0.00 94 1023.6
20150131090908 45 75 2.0 5.0 0.00 0.00 0.00 94 1023.3
20150131090408 45 67 4.0 5.0 0.00 0.00 0.00 94 1023.3
20150131085908 45 60 2.0 4.0 0.00 0.00 0.00 94 1023.3
20150131085408 45 84 0.0 4.0 0.00 0.00 0.00 94 1023.4
20150131084908 45 92 2.0 4.0 0.00 0.00 0.00 94 1023.3
20150131084408 45 0 1.0 4.0 0.00 0.00 0.00 94 1023.1
20150131081408 45 68 0.0 7.0 0.00 0.00 0.00 94 1022.7
20150131080908 45 81 1.0 7.0 0.00 0.00 0.00 94 1022.8
20150131080408 45 82 1.0 7.0 0.00 0.00 0.00 94 1022.9
20150131075907 45 54 1.0 5.0 0.00 0.00 0.00 94 1023.0
20150131075408 45 159 0.0 5.0 0.00 0.00 0.00 94 1023.3
20150131074908 45 152 0.0 5.0 0.00 0.00 0.00 94 1023.4
20150131074408 45 70 1.0 5.0 0.00 0.00 0.00 94 1023.5
20150131073908 45 82 0.0 5.0 0.00 0.00 0.00 93 1023.6
20150131073408 45 0 0.0 2.0 0.00 0.00 0.00 93 1023.9
20150131072908 45 61 0.0 6.0 0.00 0.00 0.00 93 1024.0
20150131072408 45 82 2.0 6.0 0.00 0.00 0.00 93 1024.3
20150131070907 46 72 4.0 5.0 0.00 0.00 0.00 93 1024.7
20150131063907 46 51 4.0 5.0 0.00 0.00 0.00 93 1024.5
20150131063408 46 0 0.0 0.0 0.00 0.00 0.00 93 1024.6
20150131062908 46 0 0.0 0.0 0.00 0.00 0.00 93 1024.4
20150131062408 46 0 0.0 0.0 0.00 0.00 0.00 93 1024.3
20150131061908 46 0 0.0 0.0 0.00 0.00 0.00 93 1024.1
20150131061408 46 0 0.0 0.0 0.00 0.00 0.00 93 1024.1
20150131060907 46 0 0.0 0.0 0.00 0.00 0.00 92 1024.1
20150131060407 47 0 0.0 0.0 0.00 0.00 0.00 92 1024.1
20150131055907 47 0 0.0 0.0 0.00 0.00 0.00 92 1023.9
20150131055408 47 0 0.0 2.0 0.00 0.00 0.00 93 1023.8
20150131054908 47 0 0.0 2.0 0.00 0.00 0.00 93 1023.8
20150131052907 46 0 0.0 2.0 0.00 0.00 0.00 93 1023.7
20150131051407 46 0 0.0 0.0 0.00 0.00 0.00 92 1023.6
20150131050907 46 0 0.0 0.0 0.00 0.00 0.00 92 1023.6
20150131050408 47 0 0.0 0.0 0.00 0.00 0.00 92 1023.6
20150131045907 47 0 0.0 0.0 0.00 0.00 0.00 92 1023.6
20150131045407 47 0 0.0 0.0 0.00 0.00 0.00 92 1023.6
20150131044907 47 0 0.0 0.0 0.00 0.00 0.00 92 1023.6
20150131044407 47 0 0.0 0.0 0.00 0.00 0.00 92 1023.6
20150131043907 47 0 0.0 0.0 0.00 0.00 0.00 92 1023.6
20150131043407 47 0 0.0 0.0 0.00 0.00 0.00 92 1023.7
20150131042907 47 0 0.0 0.0 0.00 0.00 0.00 92 1023.7
20150131042407 47 0 0.0 5.0 0.00 0.00 0.00 92 1023.7
20150131041907 47 0 0.0 5.0 0.00 0.00 0.00 91 1023.7
20150131041407 47 175 0.0 5.0 0.00 0.00 0.00 91 1023.8
20150131040907 48 0 0.0 1.0 0.00 0.00 0.00 91 1023.8
20150131040407 48 0 0.0 0.0 0.00 0.00 0.00 91 1024.0
20150131035908 48 0 0.0 0.0 0.00 0.00 0.00 90 1024.1
20150131035407 48 0 0.0 0.0 0.00 0.00 0.00 90 1024.3
20150131033407 49 0 2.0 2.0 0.00 0.00 0.00 90 1024.9
20150131032907 50 0 0.0 0.0 0.00 0.00 0.00 90 1025.0
20150131032407 50 0 0.0 0.0 0.00 0.00 0.00 90 1025.1
20150131031908 50 0 0.0 0.0 0.00 0.00 0.00 90 1025.0
20150131031407 50 0 0.0 0.0 0.00 0.00 0.00 90 1025.0
20150131030907 50 0 0.0 0.0 0.00 0.00 0.00 90 1024.8
20150131030407 50 0 0.0 0.0 0.00 0.00 0.00 90 1024.9
20150131025907 50 0 0.0 0.0 0.00 0.00 0.00 89 1024.9
20150131025407 50 0 0.0 0.0 0.00 0.00 0.00 89 1024.8
20150131024907 50 0 0.0 0.0 0.00 0.00 0.00 89 1024.6
20150131024407 50 0 0.0 0.0 0.00 0.00 0.00 89 1024.7
20150131023907 50 0 0.0 0.0 0.00 0.00 0.00 89 1024.7
20150131023408 50 0 0.0 0.0 0.00 0.00 0.00 89 1024.7
20150131022908 50 0 0.0 0.0 0.00 0.00 0.00 88 1024.8
20150131022407 50 0 0.0 0.0 0.00 0.00 0.00 88 1024.8
20150131021907 50 0 0.0 0.0 0.00 0.00 0.00 88 1024.7
20150131021407 51 0 0.0 5.0 0.00 0.00 0.00 87 1024.4
20150131020907 51 0 0.0 5.0 0.00 0.00 0.00 87 1024.2
20150131020407 51 81 0.0 5.0 0.00 0.00 0.00 87 1024.0
20150131015907 52 0 2.0 3.0 0.00 0.00 0.00 87 1023.9
20150131015407 52 0 0.0 4.0 0.00 0.00 0.00 86 1023.9
20150131014908 52 0 0.0 4.0 0.00 0.00 0.00 86 1024.0
20150131014407 53 79 0.0 4.0 0.00 0.00 0.00 86 1023.9
20150131013907 53 77 1.0 3.0 0.00 0.00 0.00 86 1023.8
20150131013407 53 334 0.0 12.0 0.00 0.00 0.00 85 1023.8
20150131012907 54 329 3.0 12.0 0.00 0.00 0.00 85 1023.7
20150131012408 54 319 8.0 12.0 0.00 0.00 0.00 85 1023.8
20150131011907 54 316 7.0 11.0 0.00 0.00 0.00 85 1023.9
20150131011407 54 305 6.0 11.0 0.00 0.00 0.00 85 1023.9
20150131010907 54 309 6.0 11.0 0.00 0.00 0.00 85 1023.7
20150131010408 54 315 7.0 16.0 0.00 0.00 0.00 85 1023.7
20150131005908 55 320 9.0 16.0 0.00 0.00 0.00 85 1023.6
20150131005408 55 296 9.0 16.0 0.00 0.00 0.00 85 1023.5
20150131004907 55 315 11.0 20.0 0.00 0.00 0.00 84 1023.6
20150131004407 55 316 10.0 20.0 0.00 0.00 0.00 84 1023.6
20150131003907 55 312 13.0 20.0 0.00 0.00 0.00 84 1023.6
20150131003407 55 326 11.0 16.0 0.00 0.00 0.00 84 1023.7
20150131002908 55 309 12.0 18.0 0.00 0.00 0.00 83 1023.6
20150131002407 55 316 12.0 18.0 0.00 0.00 0.00 83 1023.6
20150131001908 56 324 13.0 18.0 0.00 0.00 0.00 83 1023.7
20150131001407 56 330 12.0 16.0 0.00 0.00 0.00 82 1023.7
20150131000908 56 305 11.0 17.0 0.00 0.00 0.00 82 1023.7
20150131000407 56 324 9.0 17.0 0.00 0.00 0.00 82 1023.6
20150130235908 56 312 7.0 17.0 0.00 0.00 0.00 82 1023.6
20150130235409 56 313 9.0 15.0 0.00 0.00 0.00 81 1023.6
20150130234908 56 316 11.0 14.0 0.00 0.00 0.00 81 1023.8
20150130234407 56 285 10.0 14.0 0.00 0.00 0.00 81 1023.8
20150130233907 56 315 6.0 14.0 0.00 0.00 0.00 81 1023.7
20150130233407 56 326 11.0 12.0 0.00 0.00 0.00 80 1023.7
20150130232907 56 317 7.0 16.0 0.00 0.00 0.00 81 1023.7
20150130232408 56 317 8.0 16.0 0.00 0.00 0.00 81 1023.8
20150130231907 56 322 10.0 16.0 0.00 0.00 0.00 81 1023.8
20150130231407 56 313 12.0 20.0 0.00 0.00 0.00 80 1023.7
20150130230907 56 323 9.0 20.0 0.00 0.00 0.00 80 1023.8
20150130230407 57 320 14.0 20.0 0.00 0.00 0.00 80 1023.9
20150130225907 57 308 12.0 19.0 0.00 0.00 0.00 80 1023.9
20150130225408 57 331 13.0 19.0 0.00 0.00 0.00 78 1023.8
20150130224908 57 316 12.0 19.0 0.00 0.00 0.00 77 1023.9
20150130224407 57 327 10.0 15.0 0.00 0.00 0.00 77 1023.8
20150130223907 57 327 10.0 14.0 0.00 0.00 0.00 78 1023.9
20150130223407 58 306 8.0 14.0 0.00 0.00 0.00 79 1023.9
20150130222910 58 322 10.0 13.0 0.00 0.00 0.00 79 1024.0
20150130222408 58 320 9.0 13.0 0.00 0.00 0.00 80 1024.0
20150130221907 58 320 7.0 12.0 0.00 0.00 0.00 80 1024.0
20150130221407 58 316 9.0 11.0 0.00 0.00 0.00 80 1024.0
20150130220907 58 285 6.0 8.0 0.00 0.00 0.00 79 1024.0
20150130220407 57 0 0.0 5.0 0.00 0.00 0.00 80 1024.0
20150130215907 57 0 0.0 5.0 0.00 0.00 0.00 80 1024.1
20150130215407 57 294 0.0 5.0 0.00 0.00 0.00 80 1024.1
20150130214907 57 271 0.0 7.0 0.00 0.00 0.00 80 1024.1
20150130214407 57 270 4.0 7.0 0.00 0.00 0.00 81 1024.3
20150130213907 57 305 4.0 7.0 0.00 0.00 0.00 81 1024.4
20150130213408 57 270 4.0 7.0 0.00 0.00 0.00 81 1024.4
20150130212907 57 289 5.0 8.0 0.00 0.00 0.00 81 1024.5
20150130212407 57 282 3.0 8.0 0.00 0.00 0.00 81 1024.5
20150130211908 57 294 6.0 8.0 0.00 0.00 0.00 80 1024.6
20150130211407 58 288 6.0 8.0 0.00 0.00 0.00 79 1024.7
20150130210907 58 270 6.0 8.0 0.00 0.00 0.00 79 1024.6
20150130210407 58 301 5.0 8.0 0.00 0.00 0.00 78 1024.6
20150130205907 58 281 6.0 8.0 0.00 0.00 0.00 78 1024.7
20150130205407 58 278 6.0 9.0 0.00 0.00 0.00 77 1024.6
20150130203907 58 271 6.0 11.0 0.00 0.00 0.00 78 1024.7
20150130203407 58 313 5.0 11.0 0.00 0.00 0.00 79 1024.7
20150130202907 58 316 8.0 11.0 0.00 0.00 0.00 78 1024.8
20150130202407 58 299 9.0 12.0 0.00 0.00 0.00 78 1024.8
20150130200907 60 306 8.0 14.0 0.00 0.00 0.00 76 1025.2
20150130200407 60 305 10.0 14.0 0.00 0.00 0.00 75 1025.2
20150130195907 61 329 11.0 14.0 0.00 0.00 0.00 73 1025.3
20150130195408 61 329 9.0 10.0 0.00 0.00 0.00 72 1025.2
20150130194907 61 257 3.0 7.0 0.00 0.00 0.00 72 1025.1
20150130194407 61 162 1.0 6.0 0.00 0.00 0.00 73 1024.7
20150130193907 60 114 0.0 6.0 0.00 0.00 0.00 73 1024.7
20150130193407 59 106 0.0 4.0 0.00 0.00 0.00 75 1024.8
20150130192907 59 226 0.0 10.0 0.00 0.00 0.00 76 1024.9
20150130192407 58 133 1.0 10.0 0.00 0.00 0.00 77 1025.1
20150130185408 55 145 3.0 4.0 0.00 0.00 0.00 83 1025.6
20150130184907 54 140 0.0 3.0 0.00 0.00 0.00 88 1025.6
20150130183407 52 226 0.0 4.0 0.00 0.00 0.00 92 1026.0
20150130182907 51 231 0.0 4.0 0.00 0.00 0.00 94 1026.2
20150130182407 50 0 0.0 4.0 0.00 0.00 0.00 95 1026.4
20150130181908 49 0 0.0 4.0 0.00 0.00 0.00 95 1026.4
20150130181407 48 102 0.0 4.0 0.00 0.00 0.00 95 1026.6
20150130180907 47 224 0.0 4.0 0.00 0.00 0.00 95 1026.6
20150130180407 46 215 2.0 2.0 0.00 0.00 0.00 95 1026.7
20150130175407 46 0 0.0 2.0 0.00 0.00 0.00 95 1026.8
20150130174907 46 68 0.0 2.0 0.00 0.00 0.00 95 1026.9
20150130174407 46 0 0.0 6.0 0.00 0.00 0.00 96 1026.8
20150130173907 45 117 0.0 6.0 0.00 0.00 0.00 95 1026.9
20150130171907 44 65 2.0 5.0 0.00 0.00 0.00 96 1026.8
20150130171407 44 96 0.0 5.0 0.00 0.00 0.00 96 1027.0
20150130170907 43 96 3.0 4.0 0.00 0.00 0.00 96 1026.9
20150130170407 43 106 0.0 4.0 0.00 0.00 0.00 96 1026.8
20150130165907 43 0 0.0 0.0 0.00 0.00 0.00 96 1026.9
20150130165407 43 344 0.0 7.0 0.00 0.00 0.00 96 1026.9
20150130164907 43 275 0.0 7.0 0.00 0.00 0.00 96 1027.1
20150130164407 42 109 2.0 7.0 0.00 0.00 0.00 96 1027.1
20150130163907 42 0 0.0 2.0 0.00 0.00 0.00 96 1026.9
20150130163407 42 0 0.0 0.0 0.00 0.00 0.00 96 1027.0
20150130162907 42 0 0.0 0.0 0.00 0.00 0.00 96 1027.0
20150130162407 42 0 0.0 0.0 0.00 0.00 0.00 96 1027.3
20150130161907 43 0 0.0 0.0 0.00 0.00 0.00 96 1027.3
20150130161408 43 0 0.0 0.0 0.00 0.00 0.00 96 1027.3
20150130160909 43 0 0.0 5.0 0.00 0.00 0.00 96 1027.4
20150130160407 43 84 0.0 5.0 0.00 0.00 0.00 96 1027.5
20150130155909 43 86 0.0 5.0 0.00 0.00 0.00 96 1027.6
20150130155407 43 85 2.0 4.0 0.00 0.00 0.00 96 1027.6
20150130154907 43 88 2.0 4.0 0.00 0.00 0.00 96 1027.5
20150130154407 43 88 2.0 4.0 0.00 0.00 0.00 96 1027.5
20150130152907 43 64 0.0 4.0 0.00 0.00 0.00 96 1027.2
20150130152407 43 70 2.0 4.0 0.00 0.00 0.00 96 1027.3
20150130151907 43 70 2.0 3.0 0.00 0.00 0.00 96 1027.2
20150130151407 43 82 2.0 5.0 0.00 0.00 0.00 96 1027.2
20150130150906 43 81 3.0 5.0 0.00 0.00 0.00 96 1027.2
20150130150407 43 89 1.0 5.0 0.00 0.00 0.00 96 1027.2
20150130145906 42 347 2.0 3.0 0.00 0.00 0.00 96 1027.2
20150130145407 42 0 0.0 0.0 0.00 0.00 0.00 96 1027.1
20150130144906 42 0 0.0 5.0 0.00 0.00 0.00 96 1026.9
20150130144407 42 0 0.0 5.0 0.00 0.00 0.00 96 1026.8
20150130143906 43 154 0.0 5.0 0.00 0.00 0.00 96 1026.7
20150130143406 43 0 0.0 4.0 0.00 0.00 0.00 95 1026.5
20150130142906 43 0 0.0 4.0 0.00 0.00 0.00 95 1026.6
20150130142406 44 72 0.0 4.0 0.00 0.00 0.00 96 1026.5
20150130141906 44 72 0.0 6.0 0.00 0.00 0.00 96 1026.6
20150130141406 44 79 1.0 6.0 0.00 0.00 0.00 96 1026.6
20150130140906 44 77 2.0 6.0 0.00 0.00 0.00 96 1026.5
20150130134906 43 0 0.0 2.0 0.00 0.00 0.00 96 1026.4
20150130134406 43 0 0.0 0.0 0.00 0.00 0.00 96 1026.2
20150130133906 43 0 0.0 0.0 0.00 0.00 0.00 96 1026.2
20150130133407 43 0 0.0 0.0 0.00 0.00 0.00 96 1026.1
20150130132906 43 0 0.0 3.0 0.00 0.00 0.00 96 1026.1
20150130132407 43 0 0.0 3.0 0.00 0.00 0.00 96 1026.2
20150130131906 43 47 0.0 3.0 0.00 0.00 0.00 96 1026.1
20150130130906 43 0 0.0 0.0 0.00 0.00 0.00 96 1026.0
20150130130406 43 0 0.0 0.0 0.00 0.00 0.00 96 1026.0
20150130125906 43 0 0.0 0.0 0.00 0.00 0.00 96 1026.0
20150130125406 43 0 0.0 0.0 0.00 0.00 0.00 96 1025.9
20150130124906 43 0 0.0 0.0 0.00 0.00 0.00 96 1026.0
20150130124406 43 0 0.0 0.0 0.00 0.00 0.00 96 1026.0
20150130123906 44 0 0.0 0.0 0.00 0.00 0.00 96 1026.0
20150130123406 44 0 0.0 0.0 0.00 0.00 0.00 95 1026.1
20150130122906 44 0 0.0 0.0 0.00 0.00 0.00 95 1026.2
20150130122406 44 0 0.0 0.0 0.00 0.00 0.00 95 1026.3
20150130121907 44 0 0.0 6.0 0.00 0.00 0.00 95 1026.2
20150130121406 44 93 0.0 6.0 0.00 0.00 0.00 95 1026.2
20150130120907 44 50 1.0 6.0 0.00 0.00 0.00 96 1026.1
20150130120406 44 93 3.0 5.0 0.00 0.00 0.00 96 1026.1
20150130115907 44 96 1.0 7.0 0.00 0.00 0.00 96 1026.1
20150130115406 44 93 1.0 7.0 0.00 0.00 0.00 95 1026.1
20150130114906 44 117 1.0 7.0 0.00 0.00 0.00 95 1026.1
20150130114406 44 88 3.0 6.0 0.00 0.00 0.00 95 1026.1
20150130113906 44 99 2.0 5.0 0.00 0.00 0.00 95 1026.1
20150130113406 44 58 2.0 5.0 0.00 0.00 0.00 95 1026.2
20150130112906 44 84 0.0 5.0 0.00 0.00 0.00 95 1026.3
20150130112406 44 102 3.0 5.0 0.00 0.00 0.00 95 1026.3
20150130111907 44 74 0.0 5.0 0.00 0.00 0.00 95 1026.3
20150130111406 45 0 2.0 2.0 0.00 0.00 0.00 95 1026.4
20150130110906 45 53 0.0 5.0 0.00 0.00 0.00 95 1026.5
20150130110406 45 68 0.0 5.0 0.00 0.00 0.00 95 1026.5
20150130105907 45 74 2.0 5.0 0.00 0.00 0.00 95 1026.5
20150130105407 45 61 2.0 5.0 0.00 0.00 0.00 95 1026.5
20150130104906 45 79 0.0 5.0 0.00 0.00 0.00 95 1026.5
20150130104406 45 61 2.0 5.0 0.00 0.00 0.00 95 1026.6
20150130103906 45 60 2.0 6.0 0.00 0.00 0.00 95 1026.6
20150130103406 45 100 2.0 6.0 0.00 0.00 0.00 95 1026.6
20150130102906 45 106 0.0 6.0 0.00 0.00 0.00 95 1026.5
20150130102406 45 0 3.0 3.0 0.00 0.00 0.00 95 1026.5
20150130101906 45 0 0.0 0.0 0.00 0.00 0.00 95 1026.5
20150130101406 45 0 0.0 0.0 0.00 0.00 0.00 95 1026.4
20150130100906 45 0 0.0 3.0 0.00 0.00 0.00 95 1026.2
20150130100408 45 0 0.0 3.0 0.00 0.00 0.00 95 1026.0